BEIJING 1 1 28890U 05043A 25352.58108193 .00000251 00000+0 57983-4 0 9994 2 28890 98.2649 120.1012 0015568 123.9802 236.2882 14.63371395 74233 HUANJING 1A (HJ-1A) 1 33320U 08041A 25352.63206774 .00000703 00000+0 91654-4 0 9994 2 33320 97.6535 340.6847 0019816 15.7458 344.4368 14.83411278931638 HUANJING 1B (HJ-1B) 1 33321U 08041B 25352.59296552 .00000666 00000+0 87576-4 0 9999 2 33321 97.6395 344.3290 0038079 57.1621 303.3250 14.82834759931647 YAOGAN-4 1 33446U 08061A 25352.54247045 .00001045 00000+0 13598-3 0 9991 2 33446 97.9189 282.5848 0013227 302.9674 57.0267 14.82698896918891 DEIMOS-1 1 35681U 09041A 25352.61629773 .00000439 00000+0 72341-4 0 9991 2 35681 97.7142 152.9455 0002633 70.4379 289.7115 14.74961023880264 UK-DMC 2 1 35683U 09041C 25352.61077346 .00000763 00000+0 11893-3 0 9990 2 35683 97.8555 127.3472 0001479 92.4896 267.6483 14.75633998879938 DMC3-FM1 1 40715U 15032A 25352.63020784 .00000248 00000+0 34758-4 0 9999 2 40715 97.6693 219.6079 0004316 298.1356 61.9423 14.85449207563105 DMC3-FM2 1 40716U 15032B 25352.65269784 .00000549 00000+0 69699-4 0 9993 2 40716 97.6750 221.0774 0004912 303.5440 56.5306 14.85450682563105 DMC3-FM3 1 40717U 15032C 25352.60700862 .00001044 00000+0 12706-3 0 9993 2 40717 97.6805 222.6705 0004215 305.8054 54.2769 14.85440178563107